Location: Anan
(43.3550°N, 0.8171°E)
Time: 12:32:43
(UTC+00:00)

ARGOS Delta rocket - Pass Details

Date: 14 May 2026
Orbit: 632 x 824 km, 96.5° (Epoch: 7 June)

Event Time Altitude Azimuth Distance (km) Brightness Sun altitude
Rises 22:59:25 0° 14° (NNE) 3,243 8.2 -26.6°
Reaches altitude 10° 23:01:44 10° 18° (NNE) 2,338 7.2 -26.7°
Enters shadow 23:06:35 60° 81° (E) 913 4.2 -26.9°
